APRIZESAT 6

Satellite information

Favourite Embed

Satellite Type and Status

PAYLOADIN ORBIT

Key statistics

Satellite APRIZESAT 6 at a glance.

Uptime

5071

Days in orbit

Revolutions

≈ 14.8

Per day

Orbit

SSO

Sun Synchronous Orbit

Inclination

98.3

Latest

Satellite identification and parameters

Extended collection of information and parameters for APRIZESAT 6.

Object identification

Identified? True

Debris? False

Object name: APRIZESAT 6

International designator: 2011-044F

Object number (NORAD): 37793

Object ID (CCSDS): 37793

Country: UNITED STATES OF AMERICA (US)

Current information (Y/N): Y

RCS size: MEDIUM

Orbital parameters

Period: 97.554 minutes

Inclination: 98.2582 deg

SMA: 7019.764 km

Apoapsis: 673.177 km

Periapsis: 610.081 km

RAAN: 83.9424 deg

Eccentricy: 0.0044942

Argument of periapsis: 116.1875 deg

Mean anomaly: 298.5697 deg

Mean motion: 14.76110953 rev/day

Mean motion (dot): 0.00000565 rev/day2

B* drag term: 0.000088487 1/REarth

Two-line elements (TLE)

Creation date: July 4, 2025, 5:26 p.m.

Reference frame: TEME

Reference center: EARTH

Epoch: July 4, 2025, 4:55 p.m. UTC

TLE line 0: 0 APRIZESAT 6

TLE line 1: 1 37793U 11044F 25185.70545653 .00000565 00000-0 88487-4 0 9990

TLE line 2: 2 37793 98.2582 83.9424 0044942 116.1875 298.5697 14.76110953746029

Live tracking on map

Real-time ground track for satellite APRIZESAT 6.

In-orbit conjunctions

There are no conjunctions computed for APRIZESAT 6, at the moment. Check back to stay up to date, as we update our databases every day.

Go to all conjunctions

Associated space launch

APRIZESAT 6 was lifted into orbit during the mission ‘Dnepr 1 | Sich-2’, on board a Dnepr space rocket.

The launch took place on Aug. 17, 2011, 7:12 a.m. from 370/13.

For more information about the launch, click the button.

Launch to space Dnepr 1 | Sich-2
Dnepr 1 | Sich-2

Agency: N/A

Status: Launch Successful

Launch date: Aug. 17, 2011, 7:12 a.m. UTC

Rocket: Dnepr

Launch pad: 370/13

Location: Dombarovskiy, Russian Federation

...

Latest news about this satellite

There are no fresh news available about this satellite. Check back as we update our databases every day.


Newsletter sign-up

Weekly statistics, charts and insights to help you stay on top of the space industry.